• Join FlightAware (Why Join?)
  • Login
  • US Flag 
06:47AM EDT


 

Airport Tracker/Info


-or-


 

Live Flight TrackerFlight Track Log ✈ OPT439 ✈ 21-Jul-2013 ✈ KPNE - KEDJ

Flight Track Log - Related Links

Times and Time Zones

All times are in EDT time to prevent confusion due to time zone crossing. See the OPT439 flight status page for this flight to view local times or setup timezone preferences in your user account.

Time Position Orientation Groundspeed Altitude Reporting Facility
EDT Latitude Longitude Course Direction KTS MPH feet Rate Location/Type
10:12AM 40.0833 -75.0167 252° West 176 203 700  Level Philadelphia TRACON
10:13AM 40.0667 -75.0833 252° West 199 229 2,700 2,400 Climbing Philadelphia TRACON
10:14AM 40.0500 -75.1500 252° West 241 277 4,600 1,260 Climbing Philadelphia TRACON
10:15AM 40.0333 -75.2333 255° West 280 322 5,000 180 Climbing Philadelphia TRACON
10:16AM 40.0000 -75.3333 247° West 266 306 5,000  Level Philadelphia TRACON
10:17AM 39.9844 -75.4197 257° West 264 304 5,000 960 Level New York Center
10:18AM 39.9597 -75.5131 251° West 264 304 7,000 2,520 Climbing New York Center
10:19AM 39.9478 -75.6069 261° West 264 304 10,000 2,940 Climbing New York Center
10:20AM 39.9436 -75.7042 267° West 269 310 12,800 2,400 Climbing New York Center
10:21AM 39.9436 -75.8017 270° West 269 310 15,000 2,160 Climbing New York Center
10:22AM 39.9411 -75.9069 268° West 282 325 17,300 2,040 Climbing New York Center
10:23AM 39.9428 -76.0156 271° West 292 336 19,100 1,800 Climbing New York Center
10:24AM 39.9417 -76.1292 269° West 302 348 20,900 1,680 Climbing New York Center
10:25AM 39.9361 -76.2506 267° West 313 360 22,600 1,560 Climbing New York Center
10:26AM 39.9350 -76.3669 269° West 320 368 24,100 1,260 Climbing New York Center
10:27AM 39.9353 -76.4861 270° West 326 375 25,200 1,020 Climbing New York Center
10:28AM 39.9294 -76.6103 267° West 336 387 26,200 960 Climbing New York Center
10:29AM 39.9294 -76.7347 270° West 341 392 27,200 1,020 Climbing New York Center
10:30AM 39.9356 -76.8597 274° West 347 399 28,200 960 Climbing New York Center
10:31AM 39.9389 -76.9956 272° West 357 411 29,200 900 Climbing New York Center
10:32AM 39.9444 -77.1261 273° West 362 417 30,100 900 Climbing New York Center
10:33AM 39.9497 -77.2567 273° West 368 423 31,100 960 Climbing New York Center
10:35AM 39.9586 -77.5006 273° West 367 422 32,900 960 Climbing Cleveland Center
10:36AM 39.9625 -77.6386 272° West 367 422 33,900 900 Climbing Cleveland Center
10:37AM 39.9681 -77.7767 273° West 378 435 34,800 900 Climbing Cleveland Center
10:38AM 39.9733 -77.9119 273° West 378 435 35,800 960 Climbing Cleveland Center
10:39AM 39.9764 -78.0472 272° West 383 441 36,800 960 Climbing Cleveland Center
10:40AM 39.9814 -78.1825 273° West 383 441 37,800 960 Climbing Cleveland Center
10:41AM 39.9778 -78.3156 268° West 383 441 38,800 960 Climbing Cleveland Center
10:42AM 39.9825 -78.4453 273° West 378 435 39,800 600 Climbing Cleveland Center
10:43AM 39.9847 -78.5753 271° West 373 429 40,000 60 Climbing Cleveland Center
10:44AM 39.9892 -78.7106 272° West 368 423 40,000  Level Cleveland Center
10:45AM 39.9914 -78.8433 271° West 368 423 40,000  Level Cleveland Center
10:46AM 39.9953 -78.9733 272° West 362 417 40,000  Level Cleveland Center
10:47AM 39.9992 -79.1033 272° West 362 417 40,000  Level Cleveland Center
10:48AM 40.0028 -79.2333 272° West 362 417 40,000  Level Cleveland Center
10:49AM 40.0044 -79.3633 271° West 362 417 40,000  Level Cleveland Center
10:50AM 40.0056 -79.4936 271° West 362 417 40,000  Level Cleveland Center
10:51AM 40.0069 -79.6208 271° West 362 417 40,000  Level Cleveland Center
10:52AM 40.0100 -79.7536 272° West 362 417 40,000  Level Cleveland Center
10:53AM 40.0108 -79.8839 271° West 362 417 40,000 -540 Level Cleveland Center
10:54AM 40.0114 -79.9975 270° West 362 417 39,000 -1,500 Descending Cleveland Center
10:55AM 40.0142 -80.1331 272° West 367 422 37,000 -2,040 Descending Cleveland Center
10:56AM 40.0147 -80.2658 270° West 367 422 35,000 -2,040 Descending Cleveland Center
10:58AM 40.0156 -80.5864 270° West 369 425 30,100 -2,040 Descending Indianapolis Center
10:59AM 40.0158 -80.7219 270° West 370 426 28,100 -1,020 Descending Indianapolis Center
11:00AM 40.0219 -80.8617 273° West 379 436 28,000 -60 Descending Indianapolis Center
11:01AM 40.0400 -80.9986 280° West 382 440 28,000  Level Indianapolis Center
11:02AM 40.0614 -81.1606 280° West 386 444 28,000  Level Indianapolis Center
11:03AM 40.0786 -81.2997 279° West 385 443 28,000  Level Indianapolis Center
11:04AM 40.0961 -81.4406 279° West 388 447 28,000  Level Indianapolis Center
11:05AM 40.1144 -81.5803 278° West 388 447 28,000  Level Indianapolis Center
11:06AM 40.1122 -81.5714 278° West  Level FlightAware Approximate
11:06AM 40.1314 -81.7203 279° West 387 445 28,000  Level Indianapolis Center
11:07AM 40.1478 -81.8478 280° West 385 443 27,100 -1,320 Descending Indianapolis Center
11:09AM 40.1628 -81.9658 279° West 392 451 25,400 -2,160 Descending Indianapolis Center
11:10AM 40.1839 -82.1483 279° West 380 437 22,700 -2,160 Descending Indianapolis Center
11:11AM 40.2011 -82.2842 279° West 377 434 21,000 -1,440 Descending Indianapolis Center
11:12AM 40.2161 -82.4172 278° West 368 423 19,800 -1,020 Descending Indianapolis Center
11:13AM 40.2308 -82.5469 278° West 359 413 18,900 -1,320 Descending Indianapolis Center
11:14AM 40.2461 -82.6719 279° West 348 400 17,100 -1,860 Descending Indianapolis Center
11:15AM 40.2522 -82.8122 273° West 341 392 15,100 -1,860 Descending Indianapolis Center
11:16AM 40.2456 -82.9242 266° West 343 395 13,300 -1,980 Descending Indianapolis Center
11:17AM 40.2375 -83.0706 266° West 345 397 11,100 -1,560 Descending Indianapolis Center
11:17AM 40.2478 -83.1331 282° West 330 380 10,900 -780 Descending Indianapolis Center
11:18AM 40.2686 -83.2433 284° West 328 377 10,000 -600 Descending Indianapolis Center
11:19AM 40.2792 -83.3028 283° West 325 374 10,000 -600 Level Indianapolis Center
11:20AM 40.2986 -83.4111 283° West 309 356 9,100 -1,380 Descending Indianapolis Center
11:20AM 40.3075 -83.4667 282° West 274 315 7,900 -1,980 Descending Indianapolis Center
11:21AM 40.3167 -83.5069 287° West 276 318 7,100 -2,100 Descending Indianapolis Center
11:21AM 40.3250 -83.5658 281° West 270 311 5,800 -2,040 Descending Indianapolis Center
11:22AM 40.3331 -83.6017 286° West 267 307 5,000 -1,800 Descending Indianapolis Center
11:23AM 40.3506 -83.6958 284° West 265 305 3,100 -1,020 Descending Indianapolis Center
11:24AM 40.3656 -83.7869 282° West 260 299 3,000 -120 Descending Indianapolis Center
11:26AM 40.3667 -83.8167 270° West  Level FlightAware Approximate
11:33AM 40.3723 -83.8193 270° West  Level Estimated
11:34AM 40.3667 -83.8167 270° West  Level FlightAware Approximate